Weather in Brinkovskaya

Russia / Krasnodar Krai     46°02′07″N   38°35′10″E
temp.,
°C
wind,
m/s
gust,
m/s
humid.,
%
clouds,
%
prec.,
mm/h
press.,
hPa
HPBL,
m
25 february, thu
thu2500:00−9e574957 0.0 1037335
03:00−9ene464951 0.0 1037270
06:00−9e234935 0.0 1036241
09:00−8ese234523 0.0 1036239
12:00−3sse112854 0.0 1035305
15:00+1wnw222560 0.0 1033437
18:00−1wnw2347100 0.0 1032105
21:00−1wsw3546100 0.0 1032239
26 february, fri
fri2600:000wsw3969100 0.0 1031302
03:00+1wsw378699 0.0 1030178
06:00+2wsw4994100 0.0 1029261
09:00+3sw51096100 0.2 1028334
12:00+4wsw61294100 0.7 1027411
15:00+5wsw61396100 1.5 1026417
18:00+5wsw61296100 0.5 1025372
21:00+5sw51194100 0.5 1024392
27 february, sat
sat2700:00+6sw71592100 0.0 1022490
03:00+6sw81691100 0.1 1021531
06:00+6sw91591100 0.1 1019589
09:00+6sw81590100 0.3 1018580
12:00+7sw91687100 0.5 1016659
15:00+6sw91687100 1.4 1015661
18:00+6wsw71293100 4.6 1013539
21:00+5wnw4797100 9.8 1014299
28 february, sun
sun2800:00+4w3692100 0.3 1014201
03:00+3nw3685100 0.4 1014210
06:00+2wnw3490100 0.0 1014123
09:00+2wnw4697100 0.2 1016309
12:00+4nw578397 0.2 1017658
15:00+3nw688096 0.3 1017640
18:00+3wnw477848 0.0 1019326
21:00+3nw377874 0.1 1022272
1 march, mon
mon100:000nne358277 0.0 1023201
03:00−1nnw248149 0.0 1024191
06:00−1nnw347293 0.0 1025692
09:000nnw346997 0.0 1027754
12:00+1n3365100 0.0 1028857
15:00+1n346699 0.0 1028815
18:00+1n3472100 0.0 1029363
21:00−1n337885 0.0 103173